COSMOS 2251 DEB, 36000

Orbit data source: Space-Track

COSMOS 2251 DEB, 36000 is space debris in LEO originally from a launch on Wed, 16 Jun 1993 UTC launched from the Plesetsk Missile And Space Complex (PKMTR). The debris from Iridium 33, an American commercial communications satellite, has been tracked extensively since its accidental collision with the defunct Russian satellite Cosmos 2251 in 2009. This event, occurring at high speed in low Earth orbit (LEO), generated thousands of pieces of space debris, significantly increasing the risk of further collisions. The Iridium 33 debris cloud has impacted space traffic management and orbital debris mitigation strategies, making it a subject of ongoing study in space situational awareness.

Loading next visibility...
Identifier
36000, 1993-036AWS
Orbit
LEO
Country
Flag of CISCIS
Related business
Manufacturer
Unknown
Mission
Spacecraft
Bus & Motor
Unknown
Mass
Unknown
Launch date (UTC)
1993-06-16 (33 years ago)
Launch vehicle
Unknown
Launch site
Plesetsk Missile And Space Complex (PKMTR)
Object type
Payload
Rocket body
Debris
Shape & HBR
Unknown shape, 0.1 m
Radar Cross Section
Small (<0.1 m²)

Expand to show TLE details & history
Last TLE update: 1 day ago

TLE from 1 day ago
0 COSMOS 2251 DEB
1 36000U 93036AWS 26253.34964941  .00023552  00000-0  16644-2 0  9998
2 36000  73.9813 255.1760 0031515 297.9179  61.8820 15.04416869642367
Epoch: 2026-09-10T08:23Z
TLE epoch observation values (Epoch: 2026-09-10T08:23:29.709Z)
Latitude
0.00005°
Longitude
139.9136°
Altitude
545.743 km
Speed
7.595 km/s
True Right ascension
17h 00m 42s
True Declination
0° 00' 00"
Sunlit
Object was in daylight at epoch
Visualization orbit readout
Latitude
Unknown
Longitude
Unknown
Altitude
Unknown
Speed
Unknown
Apparent Right ascension
Unknown
Apparent Declination
Unknown
Sunlit
N/A
Visualization observer readout
Local Sidereal Time
02:23:45
Azimuth
Unknown
Elevation
Unknown
Doppler factor
Unknown
Orbital elements
Apogee altitude
572.687 km
Perigee altitude
529.013 km
Semi-major axis
6,928.987 km
Eccentricity
0.00315
Inclination
73.9813°
RAAN
255.176°
Arg. of periapsis
297.9179°
True anomaly
62.2011°
Mean anomaly
61.882°
Eccentric anomaly
62.04149°
Mean motion
3.76304 °/min
Orbital period
95.67 mins
BSTAR
0.0016644

Documentation

Showing up to 5 results
|